カタログに戻る

ONEWEB-0063

運用中通信PO
NORAD 45448·PAYLOAD·🇬🇧 United Kingdom

打ち上げ Mar 21, 2020 から Baikonur Cosmodrome

Loading…

次のパス (今後24時間)

TLE

最新Source: CelesTrak SupGP

元期: Sep 14, 2026, 20:15 UTC

1 45448C 20020AA  26257.84425185  .00000197  00000+0  55713-3 0  2575
2 45448  87.8981   3.2500 0001778 111.6894 350.2175 13.11419309    17

AllMySatでONEWEB-0063をリアルタイム追跡

Download on the App Store